Content
SEND FEEDBACK

Daily
Averages
Monthly
Summary
United States of America

CHAPMAN, NEBRASKA


Home > North America > United States > Nebraska
Elevation: 1846 feet     Latitude: 40 58N     Longitude: 098 19W

WEATHER
 
SELECT A DAY
Number of Records: 199,648;   Date Range: 1/1/95 - 7/26/14
 
SHARE

PRINT THIS DATA

[ ← Previous Day ]
WEATHER ALMANAC - JANUARY 31, 2013
[ Next Day → ]
[ °C ]   °F
Weather ElementAverageHighLow
Temperature13.4 °F19 °F (1:53 am)8.1 °F (8:53 pm)
Dewpoint0.9 °F12.9 °F (1:53 am)-4 °F (4:53 pm)
Humidity58.7 %77 % (1:53 am)43 % (1:53 pm)
Barometer30.30 in30.48 in (9:53 pm)30.01 in (1:53 am)
Wind Speed15.5 mph32.2 mph (9:53 am)
Wind Gust42.6 mph (9:53 am)
Weather ElementAverage
Visibility10 mi
Wind DirectionWNW (302.2 °)

Weather ElementTotal
Precipitation---
Heating Degree Days51.5 (Base 65)
Averaged from 23 records on January 31, 2013
WEATHER CONDITIONS BREAKOUT
WIND DIRECTION BREAKOUT
WEATHER BY HOUR - JANUARY 31, 2013
[ °C ]   °F
Local TimeTemperatureDewpointHumidityBarometerVisibilityWind DirectionWind SpeedGust SpeedPrecipitationEventsConditions
1:53 AM19.0 °F12.9 °F77 %30.01 in10.0 miNNE (30°)12.7 mphOvercast
2:53 AM17.1 °F10.9 °F77 %30.04 in10.0 miNorth (360°)11.5 mphOvercast
3:53 AM16.0 °F8.1 °F71 %30.05 in10.0 miNorth (350°)16.1 mphOvercast
4:53 AM14.0 °F8.1 °F77 %30.07 in10.0 miNorth (350°)12.7 mphOvercast
5:53 AM15.1 °F7.0 °F70 %30.11 in10.0 miNNW (340°)16.1 mphOvercast
6:53 AM15.1 °F7.0 °F70 %30.13 in10.0 miNNW (340°)13.8 mphOvercast
7:53 AM12.9 °F5.0 °F71 %30.18 in10.0 miNorth (350°)23.0 mph33.4 mphOvercast
8:53 AM10.9 °F1.0 °F64 %30.26 in10.0 miNorth (350°)24.2 mph34.5 mphOvercast
9:53 AM12.0 °F-2.0 °F53 %30.30 in10.0 miNNW (340°)32.2 mph42.6 mphMostly Cloudy
10:53 AM14.0 °F0.0 °F54 %30.33 in10.0 miNNW (330°)26.5 mph33.4 mphMostly Cloudy
11:53 AM14.0 °F-2.9 °F47 %30.36 in10.0 miNNW (340°)27.6 mph35.7 mphClear
12:53 PM15.1 °F-2.0 °F47 %30.36 in10.0 miNNW (340°)24.2 mph29.9 mphClear
1:53 PM16.0 °F-2.9 °F43 %30.36 in10.0 miNNW (330°)21.9 mph32.2 mphClear
2:53 PM16.0 °F-2.0 °F45 %30.37 in10.0 miWNW (300°)19.6 mph27.6 mphClear
3:53 PM16.0 °F-2.0 °F45 %30.39 in10.0 miNNW (330°)16.1 mph24.2 mphClear
4:53 PM15.1 °F-4.0 °F43 %30.40 in10.0 miNNW (330°)16.1 mphClear
5:53 PM12.9 °F-4.0 °F47 %30.41 in10.0 miNNW (330°)15.0 mphClear
6:53 PM10.9 °F-4.0 °F51 %30.43 in10.0 miNW (320°)8.1 mphClear
7:53 PM9.0 °F-2.9 °F59 %30.45 in10.0 miWNW (300°)6.9 mphClear
8:53 PM8.1 °F-2.0 °F64 %30.46 in10.0 miNW (320°)5.8 mphClear
9:53 PM8.1 °F-0.9 °F67 %30.48 in10.0 miWest (270°)3.5 mphPartly Cloudy
10:53 PM10.0 °F-4.0 °F53 %30.47 in10.0 miWNW (300°)3.5 mphOvercast
11:53 PM10.9 °F-2.9 °F54 %30.45 in10.0 miCalmOvercast
Hourly data recorded from KGRI, located miles away from Chapman, Nebraska







STORIES FROM OUR PARTNERS